Location: Sollberg
(42.7389°N, 93.6369°W)
Time: 00:59:09
(UTC+00:00)

ACS3 Solar Sail - Pass Details

Date: 19 October 2024
Orbit: 961 x 1022 km, 97.5° (Epoch: 03 November)

Event Time Altitude Azimuth Distance (km) Brightness Sun altitude
Exits shadow 02:58:17 37° 264° (W) 1,559 3.1 -38.9°
Maximum altitude 02:58:21 37° 266° (W) 1,558 3.1 -38.9°
Drops below altitude 10° 03:04:12 10° 332° (NNW) 2,830 4.7 -39.9°
Sets 03:06:57 0° 341° (NNW) 3,782 5.4 -40.3°
